RH
73 74 74 75 75 74 74 75 78 79 76 77 75 74 75 77 77 78 76 70 65 63 69 73 71 70 55 38 44 27 50 39 26 31 32 33 30 34 35 30 38 42 39 35 35 36 36
73 74 74 76 77 77 77 78 78 78 76 76 78 80 79 78 76 72 69 66 59 62 69 70 64 68 47 44 31 22 25 25 30 34 38 40 38 33 35 33 37 40 42 42 39 37 35
77 76 77 76 77 78 79 80 79 79 80 77 76 79 81 79 75 71 69 66 64 66 66 62 62 37 36 44 25 25 24 32 32 35 42 42 42 42 39 39 39 40 49 41 35 37 37
81 81 81 82 83 83 82 82 82 82 82 81 79 79 80 81 76 74 69 67 67 68 64 58 58 36 40 30 30 24 25 27 29 35 40 45 46 46 45 36 35 39 39 64 37 37 35
80 80 79 79 81 83 84 85 85 83 80 79 80 80 80 81 81 76 70 68 67 58 54 53 41 33 36 37 29 26 30 32 30 33 41 31 47 47 40 37 38 37 45 38 36 32 35
74 73 77 81 80 81 81 82 82 83 83 82 81 82 82 81 81 74 67 67 62 56 44 19 17 40 31 32 35 32 30 32 35 38 45 46 44 46 39 35 76 45 42 35 41 33 33
69 69 77 80 80 79 81 80 81 83 81 80 82 84 83 82 82 71 60 48 47 43 37 38 35 33 30 31 35 34 34 33 32 39 44 45 43 44 38 34 33 38 42 46 33 28 34
77 76 80 82 81 81 80 83 84 85 82 83 82 83 81 79 79 73 60 47 59 56 43 36 32 32 31 38 36 35 31 36 36 39 34 45 48 36 33 35 37 39 41 34 29 28 32
78 77 78 81 82 81 83 82 80 83 83 84 80 81 78 75 71 60 57 59 55 51 46 30 32 31 36 41 38 41 36 40 38 39 38 50 38 30 33 38 35 32 34 40 40 35 33
78 78 79 79 79 80 83 85 87 86 88 85 80 80 76 70 64 52 58 50 54 56 88 32 33 36 34 42 47 34 38 44 43 40 40 39 32 32 39 36 35 45 35 36 42 50 55
79 78 80 78 79 80 82 83 85 88 91 88 81 79 76 76 55 58 59 52 53 62 68 35 34 32 37 41 42 47 43 46 44 36 44 50 37 40 41 34 35 40 39 42 46 51 53
78 78 81 82 83 84 84 83 84 87 91 86 82 78 74 56 60 60 57 57 65 86 57 42 34 36 34 40 38 39 44 42 40 40 38 40 38 41 38 39 40 38 44 41 45 54 85
79 76 82 84 86 87 87 86 86 87 90 89 80 79 60 46 66 60 61 68 89 94 40 37 39 34 35 39 37 36 38 39 40 54 62 41 36 36 44 47 44 41 59 94 90 96 92
78 82 83 87 88 88 89 88 89 90 91 90 76 80 68 52 59 65 71 62 75 36 40 36 37 34 38 31 36 34 34 38 33 28 48 67 73 39 36 43 49 53 62 91 87 92 81
88 88 90 90 88 90 90 90 90 90 90 88 78 71 66 64 60 71 70 100 70 53 39 41 38 37 34 31 35 29 32 30 30 27 46 48 50 37 34 37 45 54 77 55 73 74 82
86 86 85 84 85 87 89 92 91 90 89 87 66 59 65 57 63 75 82 72 50 42 40 41 46 38 40 34 37 42 37 30 34 31 31 38 60 34 40 43 53 59 47 79 90 93 83
82 81 79 80 85 88 90 92 92 91 88 84 72 64 63 60 72 74 99 68 52 38 42 46 43 41 34 37 39 44 33 34 29 34 35 41 50 58 49 53 54 66 67 57 66 75 91
80 75 76 80 87 88 88 87 88 91 91 71 81 69 62 68 76 63 78 56 61 46 46 47 47 43 38 38 45 48 38 32 28 36 41 49 54 86 59 43 39 45 46 51 88 84 66
73 72 73 78 84 85 86 86 86 86 90 84 71 63 68 67 84 77 58 50 50 45 43 45 44 42 38 41 56 47 40 41 38 43 56 50 82 94 78 62 49 54 45 45 69 79 82
69 73 76 80 82 83 84 86 88 87 90 88 74 81 72 64 61 62 60 52 58 52 49 44 44 42 44 47 42 51 46 46 40 41 53 48 73 83 81 73 70 75 63 55 60 92 80
74 74 76 80 81 82 83 84 86 86 88 92 70 74 72 81 68 67 61 56 56 54 52 44 48 46 45 57 52 51 46 49 46 54 52 51 88 69 62 57 60 64 64 62 72 67 83
73 73 73 78 80 81 82 82 82 84 88 84 77 72 64 65 59 64 67 58 60 53 55 54 54 49 49 56 55 61 59 63 59 59 55 60 90 90 92 67 65 72 66 66 67 64 62
72 70 70 72 78 81 82 83 82 82 85 77 71 63 68 63 59 65 59 55 56 58 54 48 50 55 59 54 55 57 58 58 62 70 71 76 90 99 89 70 74 80 62 57 62 57 58
67 62 66 68 70 74 78 81 82 81 81 88 80 78 76 68 51 48 46 49 54 55 59 47 48 56 53 50 51 53 55 53 54 58 57 73 92 99 95 84 99 54 41 43 47 43 44
62 63 66 67 68 69 70 74 78 80 78 81 79 89 77 75 52 47 44 45 45 49 56 50 42 45 54 60 71 65 54 59 53 60 61 59 66 94 98 87 63 56 45 44 48 53 54
65 64 66 65 67 68 69 69 71 75 78 77 82 80 91 87 62 50 65 56 64 62 53 45 60 54 60 67 72 80 75 58 59 86 70 57 65 88 98 97 86 49 37 37 42 66 65
66 65 64 65 67 67 68 69 68 70 73 85 83 79 91 88 66 56 59 62 61 61 62 51 60 63 61 79 88 85 70 48 65 60 90 90 85 95 88 85 72 45 43 44 70 78 53
68 69 68 67 68 68 69 69 68 68 69 83 86 80 88 81 66 54 51 59 61 67 74 56 65 61 70 85 91 80 78 59 81 55 66 82 92 95 89 93 90 40 42 52 48 41 36
71 69 66 64 64 65 69 71 70 67 67 71 79 69 72 92 75 59 55 52 58 61 77 69 68 68 74 92 92 90 94 90 76 90 48 64 59 60 72 66 38 29 31 40 33 47 62
Wind_Speed
22 23 23 23 23 22 22 22 21 19 19 19 17 16 15 12 10 8 8 7 5 5 5 6 6 8 6 7 6 7 8 9 9 7 8 5 6 5 4 4 2 8 6 7 8 9 6
21 22 22 23 23 22 22 21 21 20 19 17 15 14 12 10 8 7 5 3 3 3 4 5 5 6 5 6 6 8 6 8 9 10 8 10 5 4 5 2 4 5 7 11 9 8 7
20 20 20 21 22 22 21 21 19 19 18 16 15 13 12 10 7 4 3 3 3 3 4 4 6 5 15 5 3 5 4 1 4 6 5 5 6 7 6 3 4 6 6 9 5 2 3
21 21 21 21 19 18 19 19 19 19 18 16 14 13 11 10 8 6 5 4 2 2 4 4 7 6 5 0 6 5 8 2 1 2 3 2 4 4 3 5 5 5 2 4 5 2 2
20 20 20 20 20 19 18 16 16 17 17 14 13 12 11 10 9 8 5 4 4 4 3 7 4 3 4 3 1 6 4 6 6 2 2 3 4 2 3 4 4 3 5 8 7 7 5
21 20 19 21 21 20 19 18 16 16 15 14 12 10 8 8 8 6 3 3 7 7 7 2 1 1 2 2 2 5 3 3 3 6 4 4 3 3 3 6 3 8 7 6 10 4 3
21 21 21 21 20 21 21 20 20 19 18 14 10 9 7 7 8 3 1 2 3 3 6 5 3 2 2 4 2 1 3 5 5 5 3 3 2 5 7 7 7 8 9 12 16 3 10
20 21 21 21 21 22 22 21 20 20 19 17 13 9 5 5 9 6 3 2 4 3 4 2 2 4 2 2 3 4 7 3 4 4 5 0 2 5 4 5 7 9 12 13 5 8 11
20 20 21 21 22 23 23 23 23 23 21 16 13 10 9 6 6 4 7 3 4 6 2 2 3 2 3 4 3 6 8 4 4 3 5 3 3 3 4 7 10 8 9 4 7 14 9
18 19 19 20 21 22 22 23 23 22 21 17 15 11 10 4 0 2 3 3 3 3 1 3 2 2 1 2 1 3 4 4 2 4 5 5 5 2 6 9 3 6 4 7 10 7 4
18 16 15 17 18 20 21 23 23 24 22 16 13 12 11 10 1 3 2 4 4 2 3 2 3 1 0 3 4 3 3 2 4 5 2 1 4 5 5 3 3 9 10 10 9 6 8
15 16 17 18 17 18 19 21 22 22 21 18 15 17 10 3 4 2 3 4 2 6 2 2 2 3 4 2 2 1 1 2 1 3 5 6 5 2 4 8 8 12 10 11 5 2 3
12 14 15 16 17 18 19 20 20 21 20 17 12 13 9 4 3 3 3 3 7 5 1 4 3 4 4 2 2 2 2 2 3 5 2 4 4 4 2 7 3 8 7 4 4 2 6
12 13 14 16 17 18 19 20 21 21 20 15 9 10 4 4 3 4 2 2 7 0 4 2 3 7 3 4 3 2 4 4 2 4 4 2 6 2 2 2 3 5 3 3 3 3 6
14 16 16 17 19 20 20 21 22 22 20 16 6 3 2 3 1 1 2 6 2 2 1 6 6 4 5 3 2 4 3 2 4 6 4 6 3 2 2 3 2 4 1 2 3 4 2
14 14 16 17 18 20 21 20 21 22 24 14 3 2 2 2 2 2 4 1 2 2 3 2 3 1 4 6 3 3 1 2 4 4 4 3 6 2 4 2 2 2 3 1 2 4 6
12 13 16 16 16 17 18 20 20 22 26 9 3 3 1 4 2 2 3 2 1 3 1 2 4 4 4 3 3 4 2 2 2 3 3 3 3 3 0 5 1 1 1 3 1 2 3
9 12 14 14 14 16 17 19 19 20 27 7 3 3 3 4 1 0 2 2 0 0 2 1 2 4 3 3 4 4 2 5 4 1 3 2 3 4 8 4 3 1 3 2 3 4 4
9 11 12 12 13 15 15 17 18 18 15 5 5 3 3 2 2 1 4 3 1 3 3 2 3 2 3 4 5 5 3 3 4 2 4 3 2 5 2 1 2 2 5 5 2 1 7
6 9 11 12 12 14 16 17 18 20 16 3 3 4 2 3 2 5 5 3 1 2 3 1 2 1 3 5 7 5 4 3 5 5 7 5 4 8 9 8 7 6 9 10 7 6 8
6 8 10 12 13 15 16 18 19 21 21 4 1 2 3 4 3 4 2 6 5 4 3 3 4 6 4 4 8 10 5 0 6 6 5 5 5 7 14 14 15 19 21 18 18 18 17
4 7 9 11 12 13 15 16 18 21 24 1 4 3 1 3 1 4 3 3 3 5 1 4 5 7 9 7 8 15 10 6 9 3 6 5 5 2 5 14 19 19 19 20 22 22 19
1 3 6 8 10 12 13 14 17 20 15 3 3 2 2 3 2 2 3 4 2 2 6 8 8 7 10 12 6 7 7 9 12 10 6 6 3 2 9 5 13 14 12 12 8 9 9
1 1 3 6 7 9 11 12 13 15 13 2 2 2 3 4 3 4 5 6 7 8 10 13 12 12 6 8 9 11 14 19 18 19 13 13 7 3 7 4 5 8 12 2 5 6 6
3 1 1 3 6 8 9 11 13 13 14 3 2 2 1 3 4 9 8 7 7 9 9 9 10 4 7 5 6 6 5 4 7 3 4 5 11 4 4 6 14 19 11 1 4 3 10
4 2 1 2 4 5 7 9 9 12 14 4 3 2 2 3 4 3 6 6 6 7 9 7 3 6 3 2 3 4 4 4 4 1 3 2 3 6 3 5 6 2 4 5 3 4 5
5 4 2 1 3 5 6 8 9 10 11 5 2 4 2 3 5 6 5 5 4 5 5 6 3 3 4 2 3 4 6 7 5 5 5 2 1 8 8 8 9 7 4 1 2 4 11
7 6 4 2 1 3 4 5 7 7 9 5 1 3 3 3 6 6 10 10 7 4 3 5 6 2 1 2 3 4 4 4 4 5 5 7 6 5 5 7 10 5 4 5 8 11 11
7 6 5 3 2 2 4 4 4 5 6 6 1 1 2 2 5 7 10 11 11 6 4 3 6 6 2 1 3 3 4 3 3 5 1 6 7 6 8 6 10 21 16 6 5 5 5
Wind_Direction
30 29 30 33 34 37 38 38 39 42 46 50 49 52 56 63 68 67 63 54 41 21 358 333 312 304 319 83 53 14 345 344 354 337 14 352 357 358 275 351 325 220 318 334 303 297 274
31 31 29 28 30 32 34 35 35 35 36 38 40 42 41 38 40 41 39 20 351 345 334 330 278 332 255 78 314 6 358 1 7 351 39 21 12 329 300 325 287 357 298 287 274 262 273
35 35 35 33 28 28 28 28 30 29 27 25 23 24 26 26 24 3 343 321 294 294 314 311 303 268 55 79 347 324 347 29 357 12 14 25 336 299 351 296 45 282 299 286 225 124 296
32 32 31 31 32 31 27 24 24 20 16 15 13 10 8 4 0 337 288 283 262 254 261 276 297 278 74 71 321 11 358 318 68 23 333 320 319 296 255 322 224 232 259 309 186 173 131
35 30 26 26 27 26 27 25 20 15 10 7 3 359 354 349 343 335 284 240 221 249 256 250 258 279 86 155 314 357 360 339 295 230 288 277 267 311 237 274 290 117 288 318 335 204 226
32 30 28 25 22 21 19 18 18 15 13 3 356 350 343 336 333 336 273 247 227 257 232 257 294 130 156 355 344 291 27 287 308 297 219 242 236 248 228 30 293 324 323 321 297 286 349
29 28 27 26 23 20 16 13 9 7 6 5 2 350 342 335 323 5 129 228 221 174 34 51 42 90 81 336 187 319 9 287 220 224 22 94 352 35 15 6 337 316 288 285 281 75 345
25 22 21 20 20 18 16 13 9 7 4 1 9 10 3 326 302 301 252 327 42 357 109 54 103 97 33 350 266 82 313 1 307 11 345 160 0 43 359 314 284 269 270 282 331 6 317
21 19 19 15 12 10 9 13 12 11 8 6 6 8 357 321 305 3 69 60 329 335 247 100 44 17 18 312 7 7 356 306 15 320 51 276 36 31 305 290 279 285 276 348 294 321 261
13 14 18 11 7 6 5 3 2 9 9 6 3 355 356 8 187 297 61 340 292 296 102 70 149 97 225 297 123 12 11 19 228 351 349 271 75 344 295 279 27 292 43 341 308 334 288
8 6 9 2 1 1 360 1 2 3 5 5 359 352 331 354 142 55 3 309 303 250 36 87 59 64 137 354 315 90 14 285 334 347 8 0 337 333 292 344 351 257 336 297 280 278 299
3 356 2 356 357 356 354 356 1 1 1 357 352 352 330 324 78 32 298 300 275 43 286 32 338 345 315 132 111 295 204 184 357 291 211 263 113 244 302 305 251 279 282 270 196 237 281
354 359 360 357 354 352 351 351 355 359 359 353 348 346 3 341 40 328 290 243 46 85 202 360 356 353 329 277 240 255 288 138 16 0 10 196 193 159 242 298 147 333 323 335 352 360 236
352 353 354 359 356 354 352 352 353 353 354 352 328 329 5 33 1 326 277 49 67 289 57 140 255 289 250 7 180 259 259 185 177 325 276 325 320 207 119 53 298 302 340 121 261 313 289
1 7 3 1 359 355 351 349 349 348 349 347 327 201 222 56 340 306 293 61 197 75 332 339 293 273 165 179 260 265 146 57 48 11 11 3 278 135 10 8 1 327 38 2 286 253 340
5 6 2 359 359 354 350 348 347 346 342 345 293 260 89 79 175 256 76 55 40 5 328 264 303 128 317 11 313 319 81 54 116 25 1 31 302 62 129 242 192 300 325 331 304 332 296
0 5 360 357 357 357 354 352 349 348 341 354 265 303 138 115 183 232 94 70 10 103 336 310 332 299 302 337 338 298 22 80 1 100 335 2 151 287 201 200 118 196 233 244 183 197 243
359 2 359 360 5 1 1 357 357 357 345 8 302 316 176 156 30 168 78 4 323 159 146 278 291 287 290 336 284 254 305 91 57 26 11 49 287 272 248 89 50 316 297 34 125 260 228
359 360 360 5 10 2 358 357 358 1 12 319 329 293 212 184 323 109 153 189 221 203 204 182 252 180 35 296 304 270 44 134 129 172 71 32 287 315 302 31 22 244 195 238 136 31 222
2 3 9 9 13 8 3 359 354 352 352 317 311 332 358 62 331 352 7 286 199 161 260 210 281 148 251 243 221 274 316 171 181 218 133 132 225 203 238 275 336 289 278 273 205 225 258
7 3 7 11 10 7 6 5 358 347 341 309 51 109 129 312 76 349 306 313 304 296 225 210 224 231 284 288 316 270 266 325 199 215 161 175 238 247 264 279 287 275 275 273 254 251 245
5 5 8 10 9 11 10 7 2 352 339 322 346 8 200 262 257 281 194 233 243 284 224 265 246 319 310 257 265 293 311 317 274 150 167 169 268 335 270 268 262 275 274 257 255 255 253
120 3 2 10 10 9 11 10 5 3 347 15 340 235 283 285 225 237 258 342 340 78 262 263 297 312 303 301 322 296 277 265 255 259 229 182 187 260 270 312 325 293 257 245 227 241 224
221 353 14 17 11 2 7 9 11 10 14 302 27 308 318 282 301 292 329 305 288 295 291 297 302 292 306 348 314 282 262 255 250 252 237 242 190 203 279 353 245 247 313 247 268 252 327
233 269 42 27 20 12 9 10 10 9 5 325 349 330 266 255 309 296 283 306 309 302 281 292 288 295 29 350 289 287 271 255 242 59 343 263 222 247 247 232 288 283 290 120 73 48 46
209 241 266 10 24 19 12 12 11 11 3 322 66 322 291 317 232 289 329 320 301 288 281 259 96 72 47 245 252 245 260 347 265 232 8 343 265 194 169 246 260 90 127 65 146 194 6
222 228 238 296 340 358 6 6 9 11 6 338 18 353 272 251 273 288 258 309 339 306 272 299 29 332 136 256 245 240 247 225 238 230 170 137 209 215 230 253 269 317 84 244 275 335 312
221 231 237 254 321 337 338 352 356 4 8 354 56 24 332 286 303 292 302 289 285 268 261 326 360 233 197 220 246 249 249 269 309 250 192 182 187 192 211 234 262 140 60 359 343 328 320
221 221 223 238 276 317 352 353 345 334 349 344 296 103 27 249 270 321 282 281 286 303 314 206 245 326 275 225 289 287 299 321 279 264 253 283 216 239 197 217 317 309 319 11 319 341 332